Location: Kings Park
(40.8862°N, 73.2573°W)
Time: 05:38:18
(UTC+00:00)

Cosmos 2082 - Pass Details

Date: 29 October 2020
Orbit: 832 x 857 km, 71.0° (Epoch: 27 November)

Event Time Altitude Azimuth Distance (km) Brightness Sun altitude
Rises 23:17:54 0° 338° (NNW) 3,435 7.1 -16.7°
Reaches altitude 10° 23:20:23 10° 341° (NNW) 2,497 6.3 -17.2°
Maximum altitude 23:26:06 68° 65° (ENE) 921 3.6 -18.3°
Enters shadow 23:31:46 10° 148° (SSE) 2,472 5.8 -19.4°
